Regional Weather Roundup
Issued by NWS

Home | Current Version | Previous Version | Graphics & Text | Print | Product List | Glossary On
Versions: 1 2 3 4 5 6 7 8 9 10 11 12 13 14 15 16 17 18 19 20 21 22 23 24 25 26 27 28 29 30 31 32 33 34 35 36 37 38 39 40 41 42 43 44 45 46 47 48 49 50
000
ASUS43 KOAX 220010
RWRNE

WEATHER ROUNDUP FOR NEBRASKA
NATIONAL WEATHER SERVICE OMAHA NE
600 PM CST TUE NOV 21 2017

NOTES: SATELLITE DATA IS BEING USED TO AUGMENT CLOUD COVER ABOVE
       12000 FEET.
       "FAIR" INDICATES FEW OR NO CLOUDS BELOW 12,000 FEET WITH NO
       SIGNIFICANT WEATHER AND/OR OBSTRUCTIONS TO VISIBILITY.


NEZ001>004-019>022-054>056-220100-
NEBRASKA PANHANDLE

CITY           SKY/WX    TMP DP  RH WIND       PRES   REMARKS
SCOTTSBLUFF    CLEAR     42  24  49 S5        30.27F
6HR MIN TEMP:  42; 6HR MAX TEMP:  48;

ALLIANCE       CLEAR     33  24  69 E6        30.26F WCI  28
6HR MIN TEMP:  32; 6HR MAX TEMP:  46;

CHADRON        CLOUDY    33  25  72 S6        30.26F WCI  28
6HR MIN TEMP:  32; 6HR MAX TEMP:  44;

GORDON         FAIR      29  23  78 CALM      30.27S
6HR MIN TEMP:  29; 6HR MAX TEMP:  38;

KIMBALL        CLEAR     35  24  64 CALM      30.28F
SIDNEY         CLEAR     28  19  69 CALM      30.29F
6HR MIN TEMP:  28; 6HR MAX TEMP:  48;

$$

NEZ057>060-069>072-079>082-220100-
SOUTHWEST NEBRASKA

CITY           SKY/WX    TMP DP  RH WIND       PRES   REMARKS
NORTH PLATTE   CLOUDY    33  16  49 NE5       30.33S WCI  29
6HR MIN TEMP:  32; 6HR MAX TEMP:  45;

IMPERIAL       CLEAR     35  23  61 N3        30.32S
6HR MIN TEMP:  34; 6HR MAX TEMP:  47;

LEXINGTON      PTCLDY    29  14  52 N7        30.35S WCI  22
MCCOOK         CLEAR     36  20  52 NE6       30.33F WCI  31
6HR MIN TEMP:  36; 6HR MAX TEMP:  46;

OGALLALA       CLEAR     38  25  59 CALM      30.31S
$$

NEZ005>010-023>029-035>040-094-220100-
NORTH CENTRAL NEBRASKA

CITY           SKY/WX    TMP DP  RH WIND       PRES   REMARKS
VALENTINE      CLOUDY    24  11  57 NE6       30.32F WCI  17
6HR MIN TEMP:  24; 6HR MAX TEMP:  31;

AINSWORTH      CLOUDY    23  10  56 CALM      30.33F
BROKEN BOW     CLOUDY    26   9  48 N9        30.35R WCI  17
6HR MIN TEMP:  25; 6HR MAX TEMP:  37;

O`NEILL        CLOUDY    20  12  71 NW8       30.36F WCI  10
ORD            CLOUDY    22  10  60 N6        30.36R WCI  14
6HR MIN TEMP:  22; 6HR MAX TEMP:  34;

THEDFORD       CLOUDY    29  14  54 CALM      30.33S
$$

NEZ041-046>049-061>064-073>077-083>087-220100-
SOUTH CENTRAL NEBRASKA

CITY           SKY/WX    TMP DP  RH WIND       PRES   REMARKS
GRAND ISLAND   CLOUDY    25  13  60 N8        30.39R WCI  16
6HR MIN TEMP:  25; 6HR MAX TEMP:  36;

AURORA         CLOUDY    22  11  62 NW9       30.38R WCI  11
HASTINGS       CLOUDY    26  10  50 N7        30.38R WCI  18
6HR MIN TEMP:  26; 6HR MAX TEMP:  39;

HEBRON         CLEAR     30  13  48 N7        30.38R WCI  24
HOLDREGE       CLOUDY    30  13  48 N5        30.35R WCI  25
KEARNEY        CLOUDY    25  11  55 N9        30.37R WCI  15
YORK           CLOUDY    25  14  63 NW7       30.38R WCI  17
$$

NEZ011>018-030>034-042>045-220100-
NORTHEAST NEBRASKA

CITY           SKY/WX    TMP DP  RH WIND       PRES   REMARKS
NORFOLK        CLOUDY    24  12  60 NW14      30.35R WCI  12
6HR MIN TEMP:  23; 6HR MAX TEMP:  29;

ALBION         CLOUDY    23  13  64 NW7       30.38R WCI  15
BLAIR          CLEAR     26  14  58 NW9       30.35S WCI  17
COLUMBUS       CLOUDY    24  13  62 NW8       30.39R WCI  15
FREMONT        CLEAR     25  13  60 NW9       30.37R WCI  15
TEKAMAH        CLEAR     26  10  50 NW13      30.37R WCI  15
6HR MIN TEMP:  26; 6HR MAX TEMP:  33;

WAYNE          CLOUDY    23   8  52 NW8       30.37R WCI  14
$$

NEZ050>053-065>068-078-088>093-220100-
SOUTHEAST NEBRASKA

CITY           SKY/WX    TMP DP  RH WIND       PRES   REMARKS
LINCOLN        CLEAR     28  12  51 N13       30.38R WCI  17
6HR MIN TEMP:  28; 6HR MAX TEMP:  36;

OMAHA EPPLEY   CLEAR     28  11  48 N12G21    30.35R WCI  18
6HR MIN TEMP:  28; 6HR MAX TEMP:  34;

BEATRICE       CLEAR     28  14  56 N9        30.35S WCI  19
FALLS CITY     CLEAR     30  13  49 NW8       30.34R WCI  22
6HR MIN TEMP:  30; 6HR MAX TEMP:  42;

NEBRASKA CITY  CLEAR     29  15  55 N9        30.34R WCI  20
PLATTSMOUTH    CLEAR     28  13  54 NW10      30.34S WCI  19
$$

NEZ044-045-051>053-067-220100-
OMAHA AREA

CITY           SKY/WX    TMP DP  RH WIND       PRES   REMARKS
OMAHA EPPLEY   CLEAR     28  11  48 N12G21    30.35R WCI  18
6HR MIN TEMP:  28; 6HR MAX TEMP:  34;

BLAIR          CLEAR     26  14  58 NW9       30.35S WCI  17
FREMONT        CLEAR     25  13  60 NW9       30.37R WCI  15
MILLARD        CLEAR     31  13  47 N10G18    30.36R WCI  22
OFFUTT AFB     CLEAR     28  11  47 NW8       30.35R WCI  20
PLATTSMOUTH    CLEAR     28  13  54 NW10      30.34S WCI  19
WAHOO          FAIR      27  13  55 N9        30.37R WCI  18
$$




USA.gov is the U.S. government's official web portal to all federal, state and local government web resources and services.